Regional Weather Roundup
Issued by NWS

Current Version | Previous Version | Text Only | Print | Product List | Glossary On
Versions: 1 2 3 4 5 6 7 8 9 10 11 12 13 14 15 16 17 18 19 20 21 22 23 24 25 26 27 28 29 30 31 32 33 34 35 36 37 38 39 40 41 42 43 44 45 46 47 48 49 50
000
ASUS43 KLMK 301310
RWRKY
KENTUCKY REGIONAL WEATHER ROUNDUP
NATIONAL WEATHER SERVICE LOUISVILLE KY
900 AM EDT FRI SEP 30 2022

NOTE "FAIR" INDICATES FEW OR NO CLOUDS BELOW 12,000 FEET
WITH NO SIGNIFICANT WEATHER AND/OR OBSTRUCTIONS TO VISIBILITY.

KYZ001>023-026-027-061>063-070>075-301400-
WESTERN AND SOUTH CENTRAL KENTUCKY

CITY           SKY/WX    TMP DP  RH WIND       PRES   REMARKS
PADUCAH        SUNNY     52  48  86 NE5       30.21R
HENDERSON      SUNNY     50  46  86 N8        30.24R
OWENSBORO      SUNNY     50  47  89 NE9       30.22S
HOPKINSVILLE   SUNNY     48  47  99 NE7       30.17R
BOWLING GREEN  SUNNY     51  46  83 NE6       30.19S
GLASGOW        SUNNY     48  46  91 NE7       30.18F
$$

KYZ024-025-028>034-038-045-046-053-301400-
NORTH CENTRAL KENTUCKY

CITY           SKY/WX    TMP DP  RH WIND       PRES   REMARKS
LOUISVILLE/SDF SUNNY     51  45  79 N7        30.24S
LOUISVILLE/LOU SUNNY     51  45  79 NE5       30.24S
FORT KNOX      SUNNY     48  47  96 N8        30.21S
$$

KYZ035>037-039>044-047>052-055>060-089>105-301400-
NORTHEAST KENTUCKY

CITY           SKY/WX    TMP DP  RH WIND       PRES   REMARKS
LEXINGTON      SUNNY     48  44  86 NE8       30.22S
COVINGTON      MOSUNNY   49  45  86 NE10      30.26S
FRANKFORT      SUNNY     49  44  83 NE6       30.23S
$$

KYZ054-064>069-076>088-106>120-301400-
SOUTHEAST KENTUCKY

CITY           SKY/WX    TMP DP  RH WIND       PRES   REMARKS
JACKSON        CLOUDY    46  45  96 CALM      30.20S FOG
LONDON         MOSUNNY   49  46  90 VRB6      30.18F
SOMERSET       MOSUNNY   50  48  93 NE7       30.17S
MIDDLESBORO    FOG       41  41 100 CALM      30.18S VSB 1/4
MONTICELLO     NOT AVBL
$$




USA.gov is the U.S. government's official web portal to all federal, state and local government web resources and services.